CW1490 Weather Reports


time (UTC)temp
C
wind
direction
speed
KPH
gust
KPH
rain 1hr
cm
rain 24hr
cm
rain mn
cm
humidity
%
barometer
mb
20260510221519 18 265 8.0 19.3 0.00 0.03 0.03 44 1012.5
20260510221007 18 21 4.8 29.0 0.00 0.03 0.03 44 1012.4
20260510220506 18 26 11.3 29.0 0.00 0.03 0.03 44 1012.5
20260510220019 19 18 12.9 25.7 0.00 0.03 0.03 45 1012.4
20260510215507 19 305 6.4 14.5 0.00 0.03 0.03 46 1012.1
20260510215005 19 292 4.8 24.1 0.00 0.03 0.03 48 1012.0
20260510214519 19 234 3.2 24.1 0.00 0.03 0.03 48 1011.9
20260510214007 19 304 8.0 24.1 0.00 0.03 0.03 49 1011.9
20260510213506 19 162 8.0 22.5 0.00 0.03 0.03 51 1011.9
20260510213021 20 336 4.8 22.5 0.00 0.03 0.03 48 1011.9
20260510212506 20 78 4.8 24.1 0.00 0.03 0.03 52 1011.9
20260510212006 20 344 6.4 24.1 0.00 0.03 0.03 49 1011.8
20260510211522 20 196 4.8 25.7 0.00 0.03 0.03 48 1011.9
20260510211006 20 315 8.0 27.4 0.00 0.03 0.03 49 1011.9
20260510210508 20 168 11.3 29.0 0.00 0.03 0.03 47 1011.9
20260510210022 20 267 11.3 29.0 0.00 0.03 0.03 49 1011.8
20260510205507 20 317 8.0 40.2 0.00 0.05 0.03 49 1011.8
20260510205006 20 261 9.7 40.2 0.00 0.05 0.03 50 1011.8
20260510204537 20 32 6.4 27.4 0.00 0.05 0.03 49 1011.6
20260510204008 20 300 11.3 27.4 0.00 0.05 0.03 50 1011.6
20260510203507 20 25 9.7 22.5 0.00 0.05 0.03 51 1011.6
20260510203024 20 93 3.2 22.5 0.00 0.08 0.03 55 1011.6
20260510202508 20 335 9.7 20.9 0.00 0.08 0.03 52 1011.6
20260510202010 20 16 8.0 27.4 0.00 0.08 0.03 53 1011.5
20260510201523 20 265 4.8 30.6 0.00 0.10 0.03 59 1011.5
20260510201009 20 325 11.3 30.6 0.00 0.10 0.03 51 1011.5
20260510200506 20 298 8.0 25.7 0.00 0.10 0.03 54 1011.6
20260510200024 20 329 8.0 25.7 0.00 0.13 0.03 56 1011.6
20260510195506 20 36 8.0 27.4 0.00 0.15 0.03 57 1011.7
20260510195010 20 347 4.8 33.8 0.00 0.18 0.03 58 1011.7
20260510194523 20 288 8.0 33.8 0.00 0.18 0.03 57 1011.8
20260510194006 20 254 8.0 41.8 0.00 0.20 0.03 59 1011.7
20260510193506 20 279 12.9 41.8 0.00 0.23 0.03 54 1011.7
20260510193012 21 16 6.4 25.7 0.00 0.23 0.03 56 1011.7
20260510192507 21 302 8.0 25.7 0.00 0.25 0.03 58 1011.8
20260510192007 21 240 11.3 27.4 0.00 0.28 0.03 60 1011.7
20260510191526 21 319 11.3 40.2 0.00 0.28 0.03 56 1011.6
20260510191008 21 234 9.7 40.2 0.00 0.30 0.03 55 1011.7
20260510190506 21 323 8.0 32.2 0.00 0.33 0.03 58 1011.7
20260510190033 21 277 9.7 32.2 0.00 0.33 0.03 58 1011.7
20260510185505 21 339 8.0 22.5 0.00 0.36 0.03 61 1011.6
20260510185003 21 16 4.8 24.1 0.00 0.38 0.03 54 1011.6
20260510184525 21 300 11.3 24.1 0.00 0.38 0.03 55 1011.6
20260510184003 21 231 8.0 17.7 0.00 0.41 0.03 57 1011.6
20260510183504 21 162 4.8 24.1 0.00 0.43 0.03 62 1011.5
20260510183011 21 182 8.0 24.1 0.00 0.43 0.03 58 1011.4
20260510182504 21 291 3.2 17.7 0.00 0.46 0.03 58 1011.4
20260510182006 21 247 6.4 17.7 0.00 0.48 0.03 60 1011.3
20260510181536 20 334 3.2 12.9 0.00 0.48 0.03 68 1011.3
20260510181009 19 245 8.0 12.9 0.00 0.51 0.03 66 1011.4
20260510180506 20 185 4.8 12.9 0.00 0.51 0.03 70 1011.4
20260510180029 19 218 3.2 11.3 0.00 0.53 0.03 72 1011.4
20260510175507 19 231 6.4 11.3 0.00 0.53 0.03 69 1011.5
20260510175007 19 128 4.8 9.7 0.00 0.56 0.03 70 1011.5
20260510174522 18 64 3.2 9.7 0.00 0.58 0.03 70 1011.6
20260510174001 18 158 6.4 9.7 0.00 0.61 0.03 72 1011.6
20260510173503 18 84 3.2 17.7 0.00 0.61 0.03 71 1011.7
20260510173028 18 178 6.4 24.1 0.00 0.64 0.03 73 1011.7
20260510172503 18 171 12.9 25.7 0.00 0.66 0.03 71 1011.8
20260510172003 18 273 9.7 25.7 0.00 0.69 0.03 70 1011.8
20260510171512 18 192 11.3 29.0 0.00 0.69 0.03 70 1011.8
20260510171005 18 192 12.9 29.0 0.00 0.71 0.03 75 1011.8
20260510170505 17 188 9.7 27.4 0.00 0.74 0.03 76 1011.9
20260510170020 17 221 12.9 25.7 0.00 0.74 0.03 76 1012.0
20260510165508 17 215 16.1 25.7 0.00 0.76 0.03 76 1012.1
20260510165013 17 159 11.3 17.7 0.00 0.79 0.03 77 1012.2
20260510164528 17 221 9.7 19.3 0.00 0.81 0.03 78 1012.2
20260510164006 17 202 12.9 19.3 0.00 0.84 0.03 76 1012.2
20260510163513 17 166 8.0 20.9 0.00 0.84 0.03 77 1012.1
20260510163028 17 219 9.7 24.1 0.00 0.86 0.03 76 1012.1
20260510162506 16 232 14.5 24.1 0.00 0.89 0.03 76 1011.9
20260510162003 17 223 9.7 24.1 0.00 0.91 0.03 77 1012.1
20260510161525 17 232 9.7 25.7 0.00 0.91 0.03 77 1011.9
20260510161003 17 237 11.3 25.7 0.00 0.94 0.03 75 1011.9
20260510160505 17 153 8.0 22.5 0.00 0.94 0.03 76 1011.9
20260510160016 17 229 8.0 29.0 0.00 0.97 0.03 75 1012.0
20260510155508 17 210 8.0 29.0 0.00 0.97 0.03 76 1011.9
20260510155006 17 221 11.3 29.0 0.00 0.99 0.03 79 1012.0
20260510154521 17 67 9.7 29.0 0.00 1.02 0.03 77 1012.0
20260510154007 16 273 8.0 29.0 0.00 1.02 0.03 79 1011.9
20260510153508 16 196 9.7 29.0 0.00 1.04 0.03 79 1012.1
20260510153036 16 215 14.5 27.4 0.00 1.04 0.03 81 1012.2
20260510152517 16 232 8.0 30.6 0.00 1.07 0.03 79 1012.1
20260510152011 16 189 8.0 30.6 0.00 1.09 0.03 80 1012.2
20260510151524 16 110 11.3 27.4 0.00 1.12 0.03 79 1012.2
20260510151010 15 182 11.3 27.4 0.00 1.14 0.03 81 1012.2
20260510150510 15 217 17.7 27.4 0.00 1.14 0.03 83 1012.1
20260510150014 15 214 12.9 24.1 0.00 1.17 0.03 81 1012.1
20260510145504 15 148 11.3 20.9 0.00 1.19 0.03 85 1012.0
20260510145005 14 183 9.7 19.3 0.00 1.19 0.03 84 1012.0
20260510144521 14 175 8.0 19.3 0.00 1.22 0.03 86 1012.1
20260510144008 13 173 6.4 19.3 0.00 1.22 0.03 85 1012.3
20260510143513 13 227 8.0 19.3 0.00 1.22 0.03 86 1012.4
20260510143022 13 212 9.7 16.1 0.00 1.22 0.03 86 1012.4
20260510142508 13 168 6.4 20.9 0.00 1.24 0.03 86 1012.4
20260510142010 13 198 9.7 20.9 0.00 1.24 0.03 87 1012.4
20260510141527 13 223 8.0 24.1 0.00 1.24 0.03 88 1012.3
20260510141014 13 236 9.7 24.1 0.00 1.24 0.03 87 1012.3
20260510140510 13 153 9.7 19.3 0.00 1.27 0.03 87 1012.2
20260510140028 13 238 8.0 22.5 0.00 1.27 0.03 88 1012.3
20260510135511 13 173 8.0 22.5 0.00 1.27 0.03 87 1012.3
20260510135004 13 182 8.0 17.7 0.00 1.30 0.03 89 1012.3
20260510134516 13 309 6.4 12.9 0.00 1.30 0.03 89 1012.2
20260510134004 13 198 4.8 17.7 0.00 1.30 0.03 89 1012.3
20260510133506 13 208 4.8 17.7 0.00 1.32 0.03 89 1012.4
20260510133020 13 214 8.0 19.3 0.00 1.32 0.03 89 1012.4
20260510132511 12 191 9.7 19.3 0.00 1.32 0.03 88 1012.4
20260510132009 12 221 11.3 19.3 0.00 1.32 0.03 88 1012.4
20260510131521 13 194 8.0 17.7 0.00 1.32 0.03 89 1012.6
20260510131010 12 187 8.0 19.3 0.00 1.32 0.03 90 1012.7
20260510130508 12 163 12.9 19.3 0.00 1.32 0.03 91 1012.5
20260510130026 12 162 11.3 19.3 0.00 1.32 0.03 91 1012.4
20260510125509 12 205 8.0 16.1 0.00 1.32 0.03 92 1012.4
20260510125013 12 219 4.8 16.1 0.00 1.37 0.03 92 1012.3
20260510124526 12 191 8.0 14.5 0.00 1.37 0.03 92 1012.3
20260510124011 12 210 4.8 16.1 0.00 1.37 0.03 93 1012.2
20260510123510 12 196 4.8 16.1 0.00 1.37 0.03 93 1012.4
20260510123018 12 189 6.4 14.5 0.00 1.37 0.03 93 1012.4
20260510122509 11 184 8.0 14.5 0.00 1.37 0.03 94 1012.4
20260510122015 11 198 8.0 17.7 0.00 1.37 0.03 94 1012.4
20260510121523 11 193 6.4 17.7 0.00 1.37 0.03 94 1012.3
20260510121012 11 227 6.4 12.9 0.00 1.37 0.03 94 1012.4
20260510120512 11 202 4.8 16.1 0.00 1.37 0.03 94 1012.5
20260510120025 11 210 6.4 16.1 0.00 1.37 0.03 94 1012.5
20260510115507 11 234 6.4 11.3 0.00 1.37 0.03 95 1012.5
20260510115010 11 215 4.8 9.7 0.00 1.37 0.03 94 1012.5
20260510114529 11 219 3.2 8.0 0.00 1.37 0.03 95 1012.5
20260510114009 11 213 3.2 8.0 0.00 1.37 0.03 95 1012.7
20260510113512 11 208 3.2 6.4 0.00 1.37 0.03 95 1012.6
20260510113027 11 221 1.6 4.8 0.00 1.37 0.03 95 1012.6
20260510112508 11 309 0.0 9.7 0.00 1.37 0.03 95 1012.5
20260510112013 11 265 1.6 9.7 0.00 1.37 0.03 95 1012.3
20260510111528 11 190 4.8 9.7 0.00 1.37 0.03 95 1012.1
20260510111007 11 215 4.8 11.3 0.00 1.37 0.03 95 1011.9
20260510110508 11 170 4.8 11.3 0.00 1.37 0.03 95 1011.9
20260510110034 11 185 4.8 14.5 0.00 1.37 0.03 95 1012.1
20260510105509 11 205 4.8 14.5 0.00 1.37 0.03 95 1012.0
20260510105009 11 161 1.6 11.3 0.00 1.37 0.03 95 1011.9
20260510104526 10 215 4.8 11.3 0.00 1.37 0.03 95 1011.9
20260510104005 10 221 4.8 11.3 0.00 1.37 0.03 96 1011.9
20260510103503 10 217 1.6 6.4 0.00 1.37 0.03 96 1011.7
20260510103010 10 249 0.0 9.7 0.00 1.37 0.03 96 1011.6
20260510102504 10 221 3.2 11.3 0.00 1.37 0.03 95 1011.5
20260510102007 10 229 4.8 14.5 0.00 1.37 0.03 95 1011.3
20260510101515 10 227 4.8 14.5 0.00 1.37 0.03 95 1011.3
20260510101004 10 245 6.4 16.1 0.00 1.37 0.03 96 1011.3
20260510100502 10 178 6.4 16.1 0.00 1.37 0.03 96 1011.0
20260510100004 10 214 9.7 17.7 0.00 1.37 0.03 96 1010.9
20260510095506 10 212 11.3 17.7 0.00 1.37 0.03 96 1010.8
20260510095004 10 218 9.7 17.7 0.00 1.37 0.03 96 1010.9
20260510094503 10 218 9.7 19.3 0.00 1.37 0.03 96 1010.9
20260510094003 10 213 9.7 19.3 0.00 1.37 0.03 96 1010.8
20260510093503 10 212 11.3 17.7 0.00 1.37 0.03 96 1010.7
20260510093009 10 215 11.3 19.3 0.00 1.37 0.03 96 1010.7
20260510092507 10 219 11.3 22.5 0.00 1.37 0.03 96 1010.8
20260510092004 10 211 11.3 22.5 0.00 1.37 0.03 96 1010.5
20260510091512 10 220 8.0 14.5 0.00 1.37 0.03 96 1010.4
20260510091005 10 219 6.4 14.5 0.00 1.37 0.03 96 1010.5
20260510090506 10 234 6.4 14.5 0.00 1.37 0.03 96 1010.8
20260510090020 10 225 6.4 11.3 0.00 1.37 0.03 96 1010.4
20260510085506 10 207 4.8 11.3 0.00 1.37 0.03 96 1010.7
20260510085003 10 221 1.6 6.4 0.00 1.37 0.03 96 1010.4
20260510084505 10 217 1.6 6.4 0.00 1.37 0.03 96 1010.8
20260510084003 10 187 1.6 8.0 0.00 1.37 0.03 96 1010.9
20260510083503 10 221 3.2 9.7 0.00 1.37 0.03 96 1011.1
20260510083004 10 218 4.8 9.7 0.00 1.37 0.03 96 1011.2
20260510082503 10 219 3.2 8.0 0.00 1.37 0.03 96 1011.1
20260510082005 10 212 3.2 8.0 0.00 1.37 0.03 96 1011.1
20260510081511 10 225 3.2 8.0 0.00 1.37 0.03 96 1011.3
20260510081005 10 216 4.8 8.0 0.00 1.37 0.03 96 1011.3
20260510080507 9 238 4.8 8.0 0.00 1.37 0.03 95 1011.2
20260510080014 9 225 3.2 6.4 0.00 1.37 0.03 95 1011.1
20260510075512 9 225 3.2 6.4 0.00 1.37 0.03 96 1011.0
20260510075007 10 196 1.6 9.7 0.00 1.37 0.03 96 1011.0
20260510074520 10 221 4.8 9.7 0.00 1.37 0.03 96 1011.2
20260510074008 9 219 4.8 9.7 0.00 1.37 0.03 95 1011.2
20260510073515 9 219 4.8 9.7 0.00 1.37 0.03 96 1011.1
20260510073005 9 215 0.0 4.8 0.00 1.37 0.03 96 1011.0
20260510072503 9 67 0.0 4.8 0.00 1.37 0.03 96 1011.0
20260510072003 9 9 1.6 4.8 0.00 1.37 0.03 96 1010.9
20260510071508 8 22 3.2 4.8 0.00 1.37 0.03 95 1010.9
20260510071003 8 41 1.6 6.4 0.00 1.37 0.03 95 1010.7
20260510070503 9 193 3.2 6.4 0.00 1.37 0.03 95 1010.7
20260510070023 9 229 4.8 6.4 0.00 1.37 0.03 95 1010.7
20260510065504 9 232 3.2 4.8 0.00 1.37 0.03 95 1010.7
20260510065005 9 234 1.6 4.8 0.00 1.37 0.03 95 1010.7
20260510064524 9 232 3.2 4.8 0.00 1.37 0.03 95 1010.9
20260510064004 9 221 1.6 4.8 0.00 1.37 0.03 95 1010.9
20260510063508 9 137 0.0 4.8 0.00 1.37 0.03 95 1010.9
20260510063022 9 153 0.0 4.8 0.00 1.37 0.03 95 1011.0
20260510062510 9 22 1.6 6.4 0.00 1.37 0.03 95 1011.1
20260510062010 9 34 3.2 6.4 0.00 1.37 0.03 95 1011.1
20260510061526 9 9 1.6 4.8 0.00 1.37 0.03 95 1011.1
20260510061001 9 110 3.2 4.8 0.00 1.37 0.03 95 1011.0
20260510060505 9 265 1.6 4.8 0.00 1.37 0.03 95 1011.1
20260510060012 9 217 1.6 4.8 0.00 1.37 0.03 95 1011.1
20260510055504 9 221 1.6 4.8 0.00 1.37 0.03 95 1011.2
20260510055003 9 265 3.2 4.8 0.00 1.37 0.03 95 1011.1
20260510054522 9 205 1.6 4.8 0.00 1.37 0.03 95 1011.1
20260510054007 9 265 1.6 4.8 0.00 1.37 0.03 95 1011.3
20260510053505 9 196 1.6 4.8 0.00 1.37 0.03 95 1011.2
20260510053019 9 146 1.6 4.8 0.00 1.37 0.03 95 1011.2
20260510052507 9 119 0.0 4.8 0.00 1.37 0.03 95 1011.3
20260510052011 9 59 0.0 4.8 0.00 1.37 0.03 95 1011.4
20260510051536 9 83 3.2 4.8 0.03 1.37 0.03 95 1011.3
20260510051013 9 93 0.0 4.8 0.03 1.37 0.03 95 1011.2
20260510050509 9 51 0.0 4.8 0.03 1.37 0.03 95 1011.3
20260510050026 9 319 1.6 4.8 0.03 1.37 0.03 95 1011.2
20260510045504 9 325 0.0 4.8 0.03 1.37 0.03 95 1011.2
20260510045005 9 309 0.0 4.8 0.03 1.37 0.03 95 1011.3
20260510044520 9 64 1.6 4.8 0.03 1.37 0.03 95 1011.3
20260510044004 9 342 0.0 3.2 0.03 1.37 0.03 95 1011.3
20260510043507 9 300 1.6 3.2 0.03 1.37 0.03 95 1011.4
20260510043017 9 309 0.0 3.2 0.03 1.37 0.03 95 1011.4
20260510042507 9 309 0.0 3.2 0.03 1.37 0.03 95 1011.4
20260510042014 9 291 1.6 3.2 0.03 1.37 0.03 95 1011.4
20260510041522 9 309 0.0 3.2 0.00 1.32 0.00 95 1011.4
20260510041007 9 221 0.0 3.2 0.00 1.32 0.00 95 1011.5
20260510040509 9 238 0.0 3.2 0.00 1.32 0.00 95 1011.5
20260510040026 9 137 1.6 3.2 0.00 1.32 0.00 95 1011.5
20260510035508 9 146 1.6 3.2 0.00 1.32 1.32 95 1011.5
20260510035010 9 51 0.0 3.2 0.00 1.32 1.32 95 1011.5
20260510034527 9 309 0.0 3.2 0.00 1.32 1.32 95 1011.6
20260510034009 9 76 1.6 3.2 0.00 1.32 1.32 95 1011.4
20260510033511 9 93 0.0 3.2 0.00 1.32 1.32 95 1011.4
20260510033019 9 238 0.0 4.8 0.00 1.32 1.32 95 1011.4
20260510032504 9 67 1.6 6.4 0.00 1.32 1.32 95 1011.4
20260510032007 9 34 0.0 6.4 0.00 1.32 1.32 95 1011.4
20260510031519 9 51 3.2 6.4 0.00 1.32 1.32 95 1011.4
20260510031006 9 76 1.6 4.8 0.00 1.32 1.32 95 1011.3
20260510030507 9 9 0.0 4.8 0.00 1.32 1.32 95 1011.4
20260510030023 9 9 1.6 4.8 0.00 1.32 1.32 95 1011.4
20260510025510 9 34 1.6 4.8 0.00 1.32 1.32 95 1011.4
20260510025006 9 22 0.0 4.8 0.00 1.32 1.32 95 1011.4
20260510024526 9 298 1.6 4.8 0.00 1.32 1.32 95 1011.5
20260510024010 9 26 1.6 4.8 0.00 1.32 1.32 95 1011.6
20260510023509 9 61 1.6 3.2 0.00 1.32 1.32 95 1011.6
20260510023026 8 26 0.0 3.2 0.00 1.32 1.32 95 1011.7
20260510022511 9 93 0.0 4.8 0.00 1.32 1.32 95 1011.8
20260510022012 8 108 1.6 4.8 0.00 1.32 1.32 95 1011.9
20260510021516 9 212 0.0 4.8 0.00 1.32 1.32 95 1011.8
20260510021007 9 221 1.6 6.4 0.00 1.32 1.32 95 1011.9
20260510020506 9 232 1.6 6.4 0.00 1.32 1.32 95 1011.9
20260510020022 9 217 3.2 4.8 0.00 1.32 1.32 95 1011.9
20260510015507 9 232 1.6 6.4 0.00 1.32 1.32 95 1011.9
20260510015006 9 234 3.2 6.4 0.00 1.32 1.32 95 1012.0
20260510014525 9 215 1.6 4.8 0.00 1.32 1.32 95 1011.9
20260510014005 9 221 0.0 3.2 0.00 1.32 1.32 95 1011.9
20260510013502 9 319 1.6 3.2 0.00 1.32 1.32 95 1011.9
20260510013008 9 9 0.0 3.2 0.00 1.32 1.32 95 1011.9
20260510012502 9 221 0.0 3.2 0.00 1.32 1.32 95 1011.9
20260510012002 9 247 1.6 3.2 0.00 1.32 1.32 95 1011.9
20260510011528 9 51 0.0 1.6 0.00 1.32 1.32 95 1011.9
20260510011007 9 51 0.0 3.2 0.00 1.32 1.32 95 1011.8
20260510010507 9 51 0.0 3.2 0.00 1.32 1.32 95 1011.8
20260510010017 9 93 0.0 3.2 0.00 1.32 1.32 95 1011.7
20260510005507 9 51 0.0 3.2 0.00 1.32 1.32 95 1011.8
20260510005006 9 34 0.0 4.8 0.00 1.32 1.32 94 1011.8
20260510004522 9 300 1.6 6.4 0.00 1.32 1.32 94 1011.6
20260510004001 9 34 1.6 6.4 0.00 1.32 1.32 94 1011.5
20260510003504 9 22 0.0 4.8 0.00 1.32 1.32 94 1011.5
20260510003009 9 309 1.6 6.4 0.00 1.32 1.32 94 1011.4
20260510002502 9 67 1.6 6.4 0.00 1.32 1.32 94 1011.3
20260510002006 9 48 3.2 6.4 0.00 1.32 1.32 94 1011.3
20260510001512 9 34 3.2 6.4 0.00 1.32 1.32 94 1011.3
20260510001003 9 26 3.2 6.4 0.00 1.32 1.32 94 1011.3
20260510000506 9 56 1.6 6.4 0.00 1.32 1.32 94 1011.2
20260510000018 9 61 0.0 3.2 0.00 1.32 1.32 94 1011.2
20260509235513 9 137 0.0 3.2 0.00 1.32 1.32 94 1011.3
20260509235007 9 205 0.0 3.2 0.00 1.32 1.32 94 1011.3
20260509234520 9 221 0.0 6.4 0.00 1.32 1.32 94 1011.2
20260509234007 9 193 1.6 6.4 0.00 1.32 1.32 94 1011.2
20260509233506 9 225 3.2 4.8 0.00 1.32 1.32 94 1011.2
20260509233024 9 178 1.6 4.8 0.00 1.32 1.32 94 1011.1
20260509232508 9 190 1.6 6.4 0.00 1.32 1.32 94 1011.2
20260509232003 9 146 1.6 6.4 0.00 1.32 1.32 94 1011.2
20260509231509 9 219 3.2 6.4 0.00 1.32 1.32 94 1011.2
20260509231003 9 137 1.6 6.4 0.00 1.32 1.32 94 1011.1
20260509230504 9 236 1.6 4.8 0.00 1.32 1.32 94 1011.1
20260509230012 9 26 0.0 6.4 0.00 1.32 1.32 94 1011.2
20260509225507 9 265 0.0 6.4 0.00 1.32 1.32 94 1011.2
20260509225007 9 131 3.2 4.8 0.00 1.32 1.32 94 1011.2
20260509224520 9 153 1.6 4.8 0.00 1.32 1.32 94 1011.2
20260509224007 9 108 1.6 6.4 0.00 1.32 1.32 94 1011.2
20260509223509 9 9 0.0 6.4 0.00 1.32 1.32 94 1011.3
20260509223023 9 26 1.6 4.8 0.00 1.32 1.32 94 1011.1
20260509222506 9 34 1.6 4.8 0.00 1.32 1.32 94 1011.0
20260509222010 9 265 0.0 3.2 0.00 1.32 1.32 94 1010.9